Starlink 30545

operational
NORAD ID: 58000 Int'l Des: 2023-153 Owner: SPXS Country: US Constellation: starlink
LEOCIRCULAR

About Starlink 30545

Description loading...

Live Position

Loading 3D Globe...

Upcoming Passes

Altitude History

Altitude vs Time

uPlot chart will show altitude changes over time

Two-Line Element Set

1 58000U 23153K 25350.17704608 .00000634 00000-0 62012-4 0 9993
2 58000 43.0013 162.5552 0000893 273.0499 87.0241 15.02539227122313
Epoch: Dec 16, 2025 • Age: 17 hours

Current Status

Altitude 558.3 km
Velocity 7.58 km/s
Sub-Earth Point 10.02°N, 71.87°W
Launch Date Oct 5, 2023
Age 2.1 years
Type internet

Technical Details

Classification Payload
Mass 730.00 kg
Dry Mass 700.00 kg
Total Mass 730.00 kg
Length 0.30 m
Diameter 4.10 m
Span 29.00 m
Shape Box + pan
Manufacturer SPXS
Bus Type Starlink V2M
Phase Status In Orbit
Owner/State SPXS/US

Large Constellations

Loading constellations...